This demonstration page uses our WeatherBlox Daily Observations layout. Learn more.

Left ArrowRight Arrow

36.19886, -115.1175

Hourly Observations for November 24, 2015

Temp ( °F °C ) Dew Point ( °F °C ) Humidity (%) Winds ( mph kmh ) Pressure ( in mb ) Visibility ( mi km ) Precip ( " mm )
12:53 am 00:53 Clear 44 6.7 20 -6.7 38 38 NNW 5 7 29.94 1014 10 16 0.00 0.00
1:53 am 01:53 Clear 45 7.2 20 -6.7 37 37 NNW 8 13 29.94 1014 10 16 0.00 0.00
2:53 am 02:53 Clear 43 6.1 20 -6.7 40 40 NW 6 9 29.93 1014 10 16 0.00 0.00
3:53 am 03:53 Clear 42 5.6 21 -6.1 43 43 Calm 29.93 1013 10 16 0.00 0.00
4:53 am 04:53 Clear 43 6.1 22 -5.6 43 43 WNW 6 9 29.93 1013 10 16 0.00 0.00
5:53 am 05:53 Clear 43 6.1 22 -5.6 43 43 Calm 29.92 1013 10 16 0.00 0.00
6:53 am 06:53 Sunny 43 6.1 22 -5.6 43 43 WNW 8 13 29.93 1014 10 16 0.00 0.00
7:53 am 07:53 Sunny 52 11.1 20 -6.7 28 28 ESE 7 11 29.92 1013 10 16 0.00 0.00
8:53 am 08:53 Sunny 56 13.3 23 -5 28 28 E 7 11 29.91 1013 10 16 0.00 0.00
9:53 am 09:53 Sunny 59 15 21 -6.1 23 23 SE 10 17 29.90 1013 10 16 0.00 0.00
10:53 am 10:53 Sunny 63 17.2 21 -6.1 20 20 ESE 8 13 29.86 1011 10 16 0.00 0.00
11:53 am 11:53 Sunny 71 21.7 21 -6.1 15 15 SW 14 22 29.80 1009 10 16 0.00 0.00
12:53 pm 12:53 Sunny 74 23.3 17 -8.3 11 11 SW 22 35 29.76 1008 10 16 0.00 0.00
1:53 pm 13:53 Sunny 73 22.8 17 -8.3 12 12 SW 20 31 29.73 1007 10 16 0.00 0.00
2:53 pm 14:53 Sunny 72 22.2 18 -7.8 13 13 SSW 21 33 29.72 1006 10 16 0.00 0.00
3:53 pm 15:53 Sunny 70 21.1 19 -7.2 14 14 SSW 24 39 29.72 1006 10 16 0.00 0.00
4:53 pm 16:53 Clear 67 19.4 20 -6.7 17 17 SSW 18 30 29.72 1007 10 16 0.00 0.00
5:53 pm 17:53 Clear 66 18.9 19 -7.2 16 16 S 20 31 29.70 1006 10 16 0.00 0.00
6:53 pm 18:53 Clear 65 18.3 19 -7.2 17 17 S 17 28 29.69 1006 10 16 0.00 0.00
7:53 pm 19:53 Clear 64 17.8 18 -7.8 17 17 S 17 28 29.68 1005 10 16 0.00 0.00
8:53 pm 20:53 Clear 63 17.2 25 -3.9 24 24 S 18 30 29.69 1005 10 16 0.00 0.00
9:53 pm 21:53 Clear 61 16.1 29 -1.7 30 30 SSW 18 30 29.69 1005 10 16 0.00 0.00
10:53 pm 22:53 Clear 60 15.6 31 -0.6 33 33 S 24 39 29.67 1005 10 16 0.00 0.00
11:53 pm 23:53 Clear 59 15 30 -1.1 33 33 S 22 35 29.65 1004 10 16 0.00 0.00

Powered by AerisWeather